IU7URP-13 Weather Reports


time (UTC)temp
F
wind
direction
speed
knots
gust
knots
rain 1hr
in
rain 24hr
in
rain mn
in
humidity
%
barometer
mb
20260503230133 54 0.0 0.0 0.00 0.00 0.00 99 1021.3
20260503224131 57 0.0 0.0 0.00 0.00 0.00 99 1021.2
20260503222130 56 0.0 0.0 0.00 0.00 0.00 99 1021.3
20260503220129 56 0.0 0.0 0.00 0.00 0.00 99 1021.1
20260503214125 55 0.0 0.0 0.00 0.00 0.00 99 1021.0
20260503212124 57 0.0 0.0 0.00 0.00 0.00 99 1020.9
20260503210122 59 0.0 0.0 0.00 0.00 0.00 99 1020.6
20260503204120 59 0.0 0.0 0.00 0.00 0.00 99 1020.5
20260503202119 60 0.0 0.0 0.00 0.00 0.00 99 1020.6
20260503200117 60 0.0 0.0 0.00 0.00 0.00 85 1020.5
20260503200021 60 0.0 0.0 0.00 0.00 0.00 85 1020.5
20260503194015 60 0.0 0.0 0.00 0.00 0.00 89 1020.5
20260503192013 61 0.0 0.0 0.00 0.00 0.00 78 1020.4
20260503190011 61 0.0 0.0 0.00 0.00 0.00 69 1020.3
20260503184010 60 0.0 0.0 0.00 0.00 0.00 82 1020.2
20260503182008 62 0.0 0.0 0.00 0.00 0.00 67 1019.9
20260503180006 62 0.0 0.0 0.00 0.00 0.00 64 1019.8
20260503174005 64 0.0 0.0 0.00 0.00 0.00 51 1019.5
20260503172004 67 0.0 0.0 0.00 0.00 0.00 39 1019.3
20260503171530 67 0.0 0.0 0.00 0.00 0.00 37 1019.3
20260503150751 69 0.0 0.0 0.00 0.00 0.00 37 1019.4
20260503130120 68 0.0 0.0 0.00 0.00 0.00 45 1019.7
20260503110648 69 0.0 0.0 0.00 0.00 0.00 52 1019.9
20260503080430 67 0.0 0.0 0.00 0.00 0.00 99 1019.9
20260503072427 65 0.0 0.0 0.00 0.00 0.00 99 1020.3
20260503070426 65 0.0 0.0 0.00 0.00 0.00 99 1020.1
20260503054421 61 0.0 0.0 0.00 0.00 0.00 99 1020.2
20260503053947 60 0.0 0.0 0.00 0.00 0.00 99 1020.2
20260503051946 59 0.0 0.0 0.00 0.00 0.00 99 1020.4
20260503045945 60 0.0 0.0 0.00 0.00 0.00 99 1020.4
20260503043943 58 0.0 0.0 0.00 0.00 0.00 99 1020.4
20260503041942 54 0.0 0.0 0.00 0.00 0.00 99 1020.4
20260503035941 53 0.0 0.0 0.00 0.00 0.00 99 1020.5
20260503033939 52 0.0 0.0 0.00 0.00 0.00 99 1020.4
20260503031938 52 0.0 0.0 0.00 0.00 0.00 99 1020.5
20260503025936 53 0.0 0.0 0.00 0.00 0.00 99 1020.5
20260503023935 53 0.0 0.0 0.00 0.00 0.00 99 1020.8
20260503021934 52 0.0 0.0 0.00 0.00 0.00 99 1020.9
20260503015932 52 0.0 0.0 0.00 0.00 0.00 99 1021.1
20260503013931 51 0.0 0.0 0.00 0.00 0.00 99 1021.2
20260503011930 52 0.0 0.0 0.00 0.00 0.00 99 1021.4
20260503005928 51 0.0 0.0 0.00 0.00 0.00 99 1021.4
20260503003927 52 0.0 0.0 0.00 0.00 0.00 99 1021.4
20260503001925 52 0.0 0.0 0.00 0.00 0.00 99 1021.5
20260502235924 52 0.0 0.0 0.00 0.00 0.00 99 1021.8
20260502233923 52 0.0 0.0 0.00 0.00 0.00 99 1022.1
20260502231921 53 0.0 0.0 0.00 0.00 0.00 99 1022.1